Regional Weather Roundup
Issued by NWS

Home | Current Version | Previous Version | Graphics & Text | Print | Product List | Glossary On
Versions: 1 2 3 4 5 6 7 8 9 10 11 12 13 14 15 16 17 18 19 20 21 22 23 24 25 26 27 28 29 30 31 32 33 34 35 36 37 38 39 40 41 42 43 44 45 46 47 48 49 50
000
ASUS43 KFSD 161302
RWRSD

WEATHER ROUNDUP FOR SOUTH DAKOTA
NATIONAL WEATHER SERVICE SIOUX FALLS SD
800 AM CDT WED APR 16 2014

NOTE: "FAIR" INDICATES FEW OR NO CLOUDS BELOW 12,000 FEET WITH NO
SIGNIFICANT WEATHER AND/OR OBSTRUCTIONS TO VISIBILITY.


SDZ001>005-009-010-012>017-161400-
NORTHWEST AND NORTH CENTRAL SOUTH DAKOTA

CITY           SKY/WX    TMP DP  RH WIND       PRES   REMARKS
MOBRIDGE       CLOUDY    29  20  69 NE17G23   29.80R WCI  17
$$

SDZ012>016-024>037-041>051-057-063-072>074-161400-
SOUTHWEST AND SOUTH CENTRAL SOUTH DAKOTA

CITY           SKY/WX    TMP DP  RH WIND       PRES   REMARKS
RAPID CTY ARPT CLOUDY    41  35  79 NW18      29.74R
PIERRE         FRZ RAIN  31  28  89 NE14      29.72R WCI  21
CUSTER         LGT SNOW  32  30  92 NW8       29.74R VSB 1   WCI  25
ELLSWORTH AFB  CLOUDY    41  35  81 NW18      29.74R
PHILIP         CLOUDY    33  29  85 N17G24    29.77R WCI  22
PINE RIDGE     LGT RAIN  40  37  89 NW14G22   29.75R
WINNER         CLOUDY    37  30  75 N22G29    29.65R
$$

SDZ004>011-016>023-039-040-161400-
NORTHEAST SOUTH DAKOTA

CITY           SKY/WX    TMP DP  RH WIND       PRES   REMARKS
ABERDEEN       LGT SNOW  27  24  89 NE20G26   29.81R VSB 1   WCI  13
WATERTOWN      FLURRIES  30  20  66 E25G32    29.73S WCI  16
SISSETON         N/A     28  25  88 E16       29.86R WCI  16
$$

SDZ017-020-022-023-036>040-048>070-161400-
SOUTHEAST SOUTH DAKOTA

CITY           SKY/WX    TMP DP  RH WIND       PRES   REMARKS
SIOUX FALLS    CLOUDY    46  27  47 S12       29.61S
HURON          CLOUDY    33  26  75 NE22G28   29.64R WCI  21
MITCHELL       LGT RAIN  42  34  73 NE14      29.55R
YANKTON        CLOUDY    48  25  40 S18G25    29.59R
$$

ABBREVIATIONS USED IN REMARKS
   TC - TEMPERATURE IN CELSIUS
  WCI - WIND CHILL INDEX
   HX - HEAT INDEX
  VSB - VISIBILITY




USA.gov is the U.S. government's official web portal to all federal, state and local government web resources and services.